sat.trackr.live / text

‹ back to catalog

CFOSAT

NORAD 43662 · 2018-083A

PAYLOAD ACTIVE UNKNOWN

§ Identity

Operator
Country
PRC
Launch date
2018-10-29
Launch site
JSC
Launch vehicle
Mass (kg)
RCS (m²)

External: N2YO · Heavens-Above · Gunter

§ Orbital elements

Epoch: 2026-09-15T23:00:12.716928Z

Period
94.96 min
Inclination
97.3656°
Eccentricity
0.0002650
Mean motion
15.16381070 rev/d
Perigee alt
515.0 km
Apogee alt
518.6 km
Semi-major
6,894.9 km
B*
1.4912e-4
RAAN
260.8356°
Arg perigee
119.3472°
Mean anomaly
240.8026°
Rev number
43,619

§ Raw data

CFOSAT1 43662U 18083A   26258.95848052  .00002830  00000+0  14912-3 0  99972 43662  97.3656 260.8356 0002650 119.3472 240.8026 15.16381070436196

JSON: /api/v1/satellites/43662 · /tle

For live sub-satellite position, see the globe view (requires WebGL).

§ Visibility from observer

Set your observer location to see the next 7 days of passes ≥ 10°. The values pass through the URL so the page stays shareable.

No JS? Fill the form by hand. The geolocation button needs JavaScript.

§ Radio — SatNOGS DB

ModeDescriptionDownlinkUplink
FM Mode S Down 2.262 GHz
FM Mode X dumps (Sweden, China) 8.304 GHz

2 transmitters · refreshed weekly from db.satnogs.org